Overview Statistics Trail Chart Weather Telemetry Raw packets
 

This is the latest recevied weather packets stored in our database for station/object WA1NHP. If no packets are shown the sender has not sent any weather packets the latest 10 day(s).

<< 1 2 3 4 5 >>
Time Temp. Humidity Pressure Rain* Wind** Luminosity Snow
1788615244 17.78° C 88% 1023.9 hPa 0 mm - 113 W/m² -
1788614645 17.22° C 89% 1023.9 hPa 0 mm - 251 W/m² -
1788614077 17.22° C 92% 1023.9 hPa 0 mm - 125 W/m² -
1788613445 16.67° C 93% 1023.9 hPa 0 mm - 218 W/m² -
1788612844 16.11° C 95% 1023.9 hPa 0 mm - 146 W/m² -
1788612244 15.56° C 96% 1023.9 hPa 0 mm - 160 W/m² -
1788611644 15.56° C 97% 1023.9 hPa 0 mm - 162 W/m² -
1788611045 15° C 98% 1023.9 hPa 0 mm - 149 W/m² -
1788610444 14.44° C 98% 1023.9 hPa 0 mm - 114 W/m² -
1788609844 14.44° C 98% 1023.9 hPa 0 mm - 86 W/m² -
1788609244 13.89° C 98% 1023.9 hPa 0 mm - 81 W/m² -
1788608645 13.89° C 98% 1023.9 hPa 0 mm - 65 W/m² -
1788608047 13.33° C 98% 1023.9 hPa 0 mm - 35 W/m² -
1788607444 13.33° C 98% 1023.9 hPa 0 mm - 25 W/m² -
1788606844 12.78° C 98% 1023.9 hPa 0 mm - 18 W/m² -
1788606245 12.78° C 98% 1023.9 hPa 0 mm - 14 W/m² -
1788605644 12.78° C 98% 1023.9 hPa 0 mm - 12 W/m² -
1788605044 12.78° C 98% 1023.9 hPa 0 mm - 9 W/m² -
1788604443 12.78° C 98% 1023.9 hPa 0 mm - 5 W/m² -
1788603843 12.78° C 98% 1023.9 hPa 0 mm - 0 W/m² -
1788603244 13.33° C 98% 1023.9 hPa 0 mm - 0 W/m² -
1788602644 13.33° C 98% 1023.9 hPa 0 mm - 0 W/m² -
1788602043 13.33° C 97% 1023.9 hPa 0 mm - 0 W/m² -
1788601444 13.33° C 98% 1023.9 hPa 0 mm - 0 W/m² -
1788600844 13.33° C 98% 1023.9 hPa 0 mm - 0 W/m² -

* Rain latest hour (hover to see other rain measurements)
** Current wind speed in m/s (hover to see current wind gust speed)